TimeEDT,TemperatureF,Dew PointF,Humidity,Sea Level PressureIn,VisibilityMPH,Wind Direction,Wind SpeedMPH,Gust SpeedMPH,PrecipitationIn,Events,Conditions,WindDirDegrees,DateUTC
12:15 AM,46.4,42.8,87,29.96,10.0,Calm,Calm,-,N/A,,Clear,0,2013-03-22 04:15:00
12:35 AM,46.4,41.0,81,29.96,10.0,Calm,Calm,-,N/A,,Clear,0,2013-03-22 04:35:00
12:55 AM,44.6,41.0,87,29.96,10.0,Calm,Calm,-,N/A,,Clear,0,2013-03-22 04:55:00
1:15 AM,44.6,41.0,87,29.96,10.0,Calm,Calm,-,N/A,,Clear,0,2013-03-22 05:15:00
1:35 AM,44.6,41.0,87,29.96,10.0,Calm,Calm,-,N/A,,Clear,0,2013-03-22 05:35:00
1:55 AM,44.6,41.0,87,29.96,10.0,Calm,Calm,-,N/A,,Clear,0,2013-03-22 05:55:00
2:15 AM,42.8,41.0,93,29.96,10.0,Calm,Calm,-,N/A,,Clear,0,2013-03-22 06:15:00
2:35 AM,42.8,41.0,93,29.96,10.0,Calm,Calm,-,N/A,,Clear,0,2013-03-22 06:35:00
3:15 AM,42.8,41.0,93,29.94,10.0,Calm,Calm,-,N/A,,Clear,0,2013-03-22 07:15:00
3:35 AM,42.8,41.0,93,29.94,10.0,Calm,Calm,-,N/A,,Clear,0,2013-03-22 07:35:00
3:55 AM,42.8,41.0,93,29.94,10.0,Calm,Calm,-,N/A,,Clear,0,2013-03-22 07:55:00
4:15 AM,42.8,41.0,93,29.93,10.0,Calm,Calm,-,N/A,,Clear,0,2013-03-22 08:15:00
4:35 AM,41.0,39.2,93,29.93,10.0,Calm,Calm,-,N/A,,Clear,0,2013-03-22 08:35:00
5:15 AM,41.0,41.0,100,29.93,10.0,Calm,Calm,-,N/A,,Clear,0,2013-03-22 09:15:00
5:35 AM,41.0,41.0,100,29.94,10.0,Calm,Calm,-,N/A,,Clear,0,2013-03-22 09:35:00
5:55 AM,42.8,41.0,93,29.94,10.0,Calm,Calm,-,N/A,,Clear,0,2013-03-22 09:55:00
6:15 AM,42.8,41.0,93,29.95,10.0,Calm,Calm,-,N/A,,Clear,0,2013-03-22 10:15:00
6:35 AM,42.8,41.0,93,29.97,10.0,Calm,Calm,-,N/A,,Clear,0,2013-03-22 10:35:00
6:55 AM,42.8,39.2,87,29.98,10.0,Calm,Calm,-,N/A,,Clear,0,2013-03-22 10:55:00
7:15 AM,44.6,41.0,87,29.98,10.0,Calm,Calm,-,N/A,,Clear,0,2013-03-22 11:15:00
7:35 AM,42.8,39.2,87,29.99,10.0,Calm,Calm,-,N/A,,Clear,0,2013-03-22 11:35:00
7:55 AM,44.6,41.0,87,29.99,10.0,Calm,Calm,-,N/A,,Clear,0,2013-03-22 11:55:00
8:15 AM,46.4,42.8,87,30.00,10.0,Calm,Calm,-,N/A,,Clear,0,2013-03-22 12:15:00
8:35 AM,50.0,44.6,82,30.00,10.0,Calm,Calm,-,N/A,,Clear,0,2013-03-22 12:35:00
8:55 AM,53.6,44.6,72,30.00,10.0,NNE,3.5,-,N/A,,Clear,30,2013-03-22 12:55:00
9:15 AM,57.2,46.4,67,30.01,10.0,NNE,5.8,-,N/A,,Clear,30,2013-03-22 13:15:00
9:35 AM,60.8,46.4,59,30.01,10.0,NNE,5.8,-,N/A,,Scattered Clouds,20,2013-03-22 13:35:00
9:55 AM,62.6,48.2,59,30.02,10.0,NE,4.6,-,N/A,,Mostly Cloudy,50,2013-03-22 13:55:00
10:15 AM,64.4,50.0,59,30.03,10.0,NE,4.6,-,N/A,,Mostly Cloudy,40,2013-03-22 14:15:00
10:35 AM,68.0,50.0,52,30.03,10.0,NE,4.6,-,N/A,,Mostly Cloudy,40,2013-03-22 14:35:00
10:55 AM,69.8,46.4,43,30.03,10.0,ENE,4.6,-,N/A,,Mostly Cloudy,60,2013-03-22 14:55:00
11:15 AM,71.6,46.4,41,30.02,10.0,East,5.8,-,N/A,,Scattered Clouds,80,2013-03-22 15:15:00
11:35 AM,73.4,50.0,44,30.02,10.0,East,5.8,-,N/A,,Scattered Clouds,100,2013-03-22 15:35:00
11:55 AM,73.4,51.8,47,30.02,10.0,East,4.6,-,N/A,,Mostly Cloudy,100,2013-03-22 15:55:00
12:15 PM,73.4,53.6,50,30.01,10.0,SE,8.1,-,N/A,,Overcast,130,2013-03-22 16:15:00
12:35 PM,77.0,55.4,47,30.01,10.0,SE,8.1,-,N/A,,Mostly Cloudy,140,2013-03-22 16:35:00
12:55 PM,77.0,57.2,50,30.00,10.0,SE,10.4,-,N/A,,Scattered Clouds,130,2013-03-22 16:55:00
1:15 PM,77.0,59.0,54,30.00,10.0,SE,9.2,19.6,N/A,,Clear,130,2013-03-22 17:15:00
1:35 PM,75.2,59.0,57,29.99,10.0,SE,9.2,-,N/A,,Mostly Cloudy,140,2013-03-22 17:35:00
1:55 PM,73.4,59.0,61,29.99,10.0,SSE,9.2,-,N/A,,Overcast,150,2013-03-22 17:55:00
2:15 PM,71.6,62.6,73,29.99,7.0,South,8.1,-,N/A,,Overcast,170,2013-03-22 18:15:00
2:35 PM,71.6,62.6,73,29.97,10.0,SE,4.6,-,N/A,,Overcast,140,2013-03-22 18:35:00
2:55 PM,71.6,62.6,73,29.97,10.0,ENE,3.5,-,N/A,,Overcast,60,2013-03-22 18:55:00
3:15 PM,71.6,60.8,69,29.97,10.0,NNE,3.5,-,N/A,,Overcast,30,2013-03-22 19:15:00
3:35 PM,71.6,62.6,73,29.96,10.0,East,3.5,-,N/A,,Overcast,100,2013-03-22 19:35:00
3:55 PM,73.4,62.6,69,29.94,10.0,East,8.1,-,N/A,,Overcast,100,2013-03-22 19:55:00
4:15 PM,73.4,60.8,65,29.94,10.0,ESE,8.1,-,N/A,,Overcast,120,2013-03-22 20:15:00
4:35 PM,73.4,62.6,69,29.94,10.0,East,6.9,-,N/A,,Overcast,100,2013-03-22 20:35:00
4:55 PM,73.4,62.6,69,29.94,10.0,ESE,9.2,-,N/A,,Overcast,120,2013-03-22 20:55:00
5:15 PM,77.0,60.8,57,29.93,10.0,ESE,9.2,-,N/A,,Mostly Cloudy,120,2013-03-22 21:15:00
5:35 PM,73.4,60.8,65,29.93,10.0,ESE,10.4,-,N/A,,Mostly Cloudy,120,2013-03-22 21:35:00
5:55 PM,75.2,60.8,61,29.93,10.0,SE,10.4,16.1,N/A,,Mostly Cloudy,140,2013-03-22 21:55:00
6:15 PM,73.4,60.8,65,29.94,10.0,SE,10.4,-,N/A,,Scattered Clouds,130,2013-03-22 22:15:00
6:35 PM,73.4,60.8,65,29.93,10.0,SE,9.2,-,N/A,,Mostly Cloudy,140,2013-03-22 22:35:00
6:55 PM,73.4,60.8,65,29.94,10.0,SE,6.9,-,N/A,,Scattered Clouds,140,2013-03-22 22:55:00
7:15 PM,71.6,60.8,69,29.94,10.0,SE,6.9,-,N/A,,Mostly Cloudy,140,2013-03-22 23:15:00
7:35 PM,71.6,60.8,69,29.95,10.0,SE,4.6,-,N/A,,Overcast,140,2013-03-22 23:35:00
7:55 PM,71.6,60.8,69,29.96,10.0,SE,3.5,-,N/A,,Overcast,140,2013-03-22 23:55:00
8:15 PM,71.6,62.6,73,29.96,10.0,SE,4.6,-,N/A,,Overcast,140,2013-03-23 00:15:00
8:35 PM,71.6,62.6,73,29.96,10.0,SE,3.5,-,N/A,,Overcast,130,2013-03-23 00:35:00
8:55 PM,69.8,62.6,78,29.97,10.0,Calm,Calm,-,N/A,,Overcast,0,2013-03-23 00:55:00
9:15 PM,68.0,62.6,83,29.99,5.0,Calm,Calm,-,0.02,,Overcast,0,2013-03-23 01:15:00
9:35 PM,66.2,62.6,88,29.99,7.0,East,3.5,-,0.05,,Overcast,90,2013-03-23 01:35:00
9:55 PM,66.2,64.4,94,29.98,10.0,NNE,5.8,-,0.05,,Overcast,30,2013-03-23 01:55:00
10:15 PM,64.4,64.4,100,29.99,10.0,ENE,4.6,-,N/A,,Overcast,70,2013-03-23 02:15:00
10:35 PM,64.4,64.4,100,29.99,10.0,ENE,3.5,-,N/A,,Overcast,70,2013-03-23 02:35:00
10:55 PM,64.4,64.4,100,30.00,10.0,NE,3.5,-,N/A,,Overcast,50,2013-03-23 02:55:00
11:15 PM,66.2,64.4,94,30.00,10.0,Calm,Calm,-,N/A,,Overcast,0,2013-03-23 03:15:00
11:35 PM,66.2,64.4,94,30.01,10.0,North,3.5,-,N/A,,Overcast,360,2013-03-23 03:35:00
11:55 PM,64.4,62.6,94,29.99,10.0,ENE,3.5,-,0.01,,Mostly Cloudy,70,2013-03-23 03:55:00